Texarkana, AR

1:48 AM CST on November 15, 2019 (GMT -0600)
Texarkana Regional-Webb

Weather History for KTXK - October, 2019

Change the Weather History Date:

Monday, October 21, 2019

  Actual Average Record
Temperature  
Mean Temperature 65 °F 63 °F  
Max Temperature 75 °F 75 °F 97 °F (1927)
Min Temperature 54 °F 52 °F 30 °F (1917)
Degree Days  
Heating Degree Days 0 4  
Month to date heating degree days 57 52  
Since 1 July heating degree days 57 63  
Cooling Degree Days 0 2  
Month to date cooling degree days 120 78  
Year to date cooling degree days 2466 2172  
Growing Degree Days 17 (Base 50)    
Moisture  
Dew Point 58 °F    
Average Humidity 67    
Maximum Humidity 100    
Minimum Humidity 33    
Precipitation  
Precipitation 1.03 in 0.19 in 5.19 in (1996)
Month to date precipitation 3.73 3.30  
Year to date precipitation 46.26 38.15  
Snow  
Snow 0.00 in - - ()
Month to date snowfall 0.0  
Since 1 July snowfall 0.0  
Since 1 September snowfall 0.0  
Snow Depth 0.00 in    
Sea Level Pressure  
Sea Level Pressure 29.76 in    
Wind  
Wind Speed 8 mph (West)    
Max Wind Speed 30 mph    
Max Gust Speed 39 mph    
Visibility 8 miles    
Events Rain , Thunderstorm    
T = Trace of Precipitation, MM = Missing Value Source: NWS Daily Summary

Daily Weather History Graph

Daily Weather History Graph

Search for Another Location

Airport or City:

Astronomy

Oct. 21, 2019 Rise Set
Actual Time 7:25 AM CDT 6:35 PM CDT
Civil Twilight 6:59 AM CDT 7:00 PM CDT
Nautical Twilight 6:30 AM CDT 7:29 PM CDT
Astronomical Twilight 6:02 AM CDT 7:58 PM CDT
Moon No Moon Rise 2:33 PM CDT (10/21)
Length of Visible Light 12h 00m
Length of Day
11h 10m
Waning Gibbous, 48% of the Moon is Illuminated
Oct 21
Waning Gibbous
Oct 27
New
Nov 4
First Quarter
Nov 12
Full
Nov 19
Last Quarter

Hourly Weather History & Observations

Time (CDT) Temp. Dew Point Humidity Pressure Visibility Wind Dir Wind Speed Gust Speed Precip Events Conditions
12:53 AM 75.0 °F 68.0 °F 79% 29.64 in 10.0 mi South 17.3 mph 23.0 mph N/A   Overcast
1:17 AM 73.9 °F 69.1 °F 85% 29.63 in 10.0 mi South 15.0 mph 21.9 mph N/A   Overcast
1:39 AM 73.9 °F 69.1 °F 85% 29.64 in 10.0 mi South 11.5 mph - N/A Thunderstorm Overcast
1:53 AM 73.9 °F 69.1 °F 85% 29.63 in 10.0 mi SSW 12.7 mph - N/A Thunderstorm Overcast
2:00 AM 73.9 °F 69.1 °F 85% 29.64 in 10.0 mi SSW 13.8 mph - N/A   Overcast
2:17 AM 73.9 °F 70.0 °F 87% 29.65 in 10.0 mi South 13.8 mph - N/A   Overcast
2:53 AM 73.9 °F 70.0 °F 87% 29.61 in 10.0 mi South 15.0 mph 24.2 mph N/A   Overcast
3:22 AM 73.0 °F 66.9 °F 81% 29.69 in 9.0 mi West 25.3 mph 39.1 mph 0.00 in Rain , Thunderstorm Light Rain
3:29 AM 66.9 °F 63.0 °F 87% 29.71 in 2.5 mi West 24.2 mph 39.1 mph 0.07 in Rain , Thunderstorm Heavy Rain
3:32 AM 66.0 °F 63.0 °F 90% 29.70 in 1.2 mi West 20.7 mph 36.8 mph 0.22 in Rain , Thunderstorm Heavy Rain
3:37 AM 66.0 °F 63.0 °F 90% 29.72 in 0.8 mi WSW 19.6 mph 35.7 mph 0.47 in Rain , Thunderstorm Heavy Thunderstorms and Rain
3:42 AM 64.9 °F 64.0 °F 97% 29.69 in 1.0 mi West 12.7 mph 27.6 mph 0.60 in Rain , Thunderstorm Heavy Thunderstorms and Rain
3:53 AM 66.0 °F 64.0 °F 93% 29.68 in 2.0 mi WSW 16.1 mph 27.6 mph 0.75 in Rain , Thunderstorm Heavy Thunderstorms and Rain
4:00 AM 66.0 °F 64.9 °F 96% 29.69 in 5.0 mi West 11.5 mph 24.2 mph 0.01 in Rain , Thunderstorm Thunderstorms and Rain
4:13 AM 66.0 °F 64.9 °F 96% 29.69 in 6.0 mi WSW 9.2 mph - 0.03 in Rain , Thunderstorm Thunderstorms and Rain
4:21 AM 66.0 °F 64.9 °F 96% 29.69 in 6.0 mi West 9.2 mph - 0.05 in Rain , Thunderstorm Rain
4:44 AM 66.0 °F 66.0 °F 100% 29.68 in 6.0 mi Calm Calm - 0.08 in Rain Rain
4:53 AM 66.0 °F 64.9 °F 96% 29.68 in 5.0 mi West 3.5 mph - 0.10 in Rain , Thunderstorm Thunderstorms and Rain
5:45 AM 66.0 °F 64.9 °F 96% 29.68 in 5.0 mi SSW 3.5 mph - 0.14 in Rain Rain
5:53 AM 64.9 °F 64.9 °F 100% 29.66 in 8.0 mi SSE 5.8 mph - 0.15 in Rain Light Rain
6:05 AM 64.9 °F 64.9 °F 100% 29.68 in 8.0 mi South 4.6 mph - 0.01 in Rain , Thunderstorm Rain
6:20 AM 66.0 °F 66.0 °F 100% 29.70 in 10.0 mi Variable 3.5 mph - 0.03 in Rain Light Rain
6:31 AM 66.0 °F 64.9 °F 96% 29.71 in 10.0 mi West 5.8 mph - 0.03 in Rain Light Rain
6:53 AM 66.0 °F 64.9 °F 96% 29.71 in 10.0 mi West 9.2 mph - 0.03 in   Mostly Cloudy
7:05 AM 66.0 °F 64.9 °F 96% 29.73 in 10.0 mi West 9.2 mph - N/A   Scattered Clouds
7:25 AM 66.0 °F 64.9 °F 96% 29.73 in 10.0 mi West 6.9 mph - N/A   Mostly Cloudy
7:38 AM 66.0 °F 64.0 °F 93% 29.73 in 10.0 mi Variable 4.6 mph - N/A   Overcast
7:53 AM 64.9 °F 64.0 °F 97% 29.76 in 10.0 mi West 8.1 mph - N/A   Mostly Cloudy
8:53 AM 64.0 °F 62.1 °F 93% 29.77 in 10.0 mi NW 6.9 mph - N/A   Partly Cloudy
9:53 AM 62.1 °F 54.0 °F 75% 29.81 in 10.0 mi NNW 6.9 mph - N/A   Clear
10:53 AM 66.9 °F 48.9 °F 52% 29.84 in 10.0 mi NNW 10.4 mph - N/A   Clear
11:53 AM 69.1 °F 48.0 °F 47% 29.85 in 10.0 mi NNW 6.9 mph - N/A   Clear
12:53 PM 71.1 °F 45.0 °F 39% 29.84 in 10.0 mi WNW 8.1 mph - N/A   Clear
1:53 PM 73.0 °F 44.1 °F 35% 29.83 in 10.0 mi WNW 11.5 mph - N/A   Clear
2:53 PM 73.9 °F 44.1 °F 34% 29.83 in 10.0 mi NW 9.2 mph 18.4 mph N/A   Clear
3:53 PM 72.0 °F 42.1 °F 34% 29.84 in 10.0 mi West 12.7 mph - N/A   Clear
4:53 PM 72.0 °F 41.0 °F 33% 29.86 in 10.0 mi West 9.2 mph - N/A   Clear
5:53 PM 69.1 °F 39.0 °F 33% 29.86 in 10.0 mi WNW 8.1 mph - N/A   Clear
6:53 PM 64.0 °F 43.0 °F 46% 29.90 in 10.0 mi WNW 5.8 mph - N/A   Clear
7:53 PM 62.1 °F 43.0 °F 50% 29.94 in 10.0 mi WNW 6.9 mph - N/A   Clear
8:53 PM 61.0 °F 43.0 °F 52% 29.97 in 10.0 mi NW 8.1 mph - N/A   Clear
9:53 PM 59.0 °F 42.1 °F 53% 30.00 in 10.0 mi WNW 6.9 mph - N/A   Clear
10:53 PM 62.1 °F 39.0 °F 43% 30.02 in 10.0 mi WNW 6.9 mph - N/A   Clear
11:53 PM 57.0 °F 39.9 °F 53% 30.03 in 10.0 mi SW 6.9 mph - N/A   Clear